This is the latest recevied weather packets stored in our database for station/object NQ9F. If no packets are shown the sender has not sent any weather packets the latest 1 day(s).
| Time | Temp. | Humidity | Pressure | Rain* | Wind** | Luminosity | Snow |
|---|---|---|---|---|---|---|---|
| 1778016009 | 26.67° C | 61% | 1005.1 hPa | 0 mm | 5.36 m/s, 321° | 318 W/m² | - |
| 1778015706 | 27.22° C | 58% | 1005 hPa | 0 mm | 3.58 m/s, 353° | 361 W/m² | - |
| 1778015402 | 27.22° C | 55% | 1005.1 hPa | 0 mm | 5.81 m/s, 328° | 814 W/m² | - |
| 1778015099 | 27.78° C | 54% | 1005.2 hPa | 0 mm | 3.13 m/s, 341° | 712 W/m² | - |
| 1778014795 | 27.78° C | 52% | 1005 hPa | 0 mm | 2.24 m/s, 340° | 774 W/m² | - |
| 1778014494 | 27.78° C | 53% | 1005.3 hPa | 0 mm | 3.13 m/s, 356° | 430 W/m² | - |
| 1778014191 | 27.78° C | 50% | 1005.3 hPa | 0 mm | 2.68 m/s, 336° | 469 W/m² | - |
| 1778013889 | 28.33° C | 49% | 1005.2 hPa | 0 mm | 3.13 m/s, 9° | 1096 W/m² | - |
| 1778013586 | 27.78° C | 48% | 1005.3 hPa | 0 mm | 5.81 m/s, 320° | 987 W/m² | - |
| 1778013282 | 27.78° C | 48% | 1005.4 hPa | 0 mm | 3.58 m/s, 317° | 859 W/m² | - |
| 1778012978 | 27.78° C | 45% | 1005.3 hPa | 0 mm | 7.6 m/s, 317° | 496 W/m² | - |
| 1778012675 | 27.78° C | 44% | 1005.3 hPa | 0 mm | 7.15 m/s, 320° | 871 W/m² | - |
| 1778012371 | 27.78° C | 45% | 1005.3 hPa | 0 mm | 7.6 m/s, 314° | 779 W/m² | - |
| 1778012068 | 27.78° C | 44% | 1005.3 hPa | 0 mm | 8.05 m/s, 333° | 668 W/m² | - |
| 1778011766 | 27.78° C | 47% | 1005.3 hPa | 0 mm | 4.02 m/s, 329° | 966 W/m² | - |
| 1778011463 | 28.89° C | 46% | 1005.1 hPa | 0 mm | 5.81 m/s, 329° | 1030 W/m² | - |
| 1778011159 | 30.56° C | 52% | 1004.9 hPa | 0 mm | 2.68 m/s, 283° | 1025 W/m² | - |
| 1778010857 | 30.56° C | 51% | 1005.3 hPa | 0 mm | 1.79 m/s, 263° | 535 W/m² | - |
| 1778010553 | 30° C | 52% | 1005.3 hPa | 0 mm | 2.24 m/s, 313° | 757 W/m² | - |
| 1778010251 | 30.56° C | 51% | 1005.3 hPa | 0 mm | 6.71 m/s, 256° | 836 W/m² | - |
| 1778009951 | 30° C | 53% | 1005.3 hPa | 0 mm | 4.02 m/s, 244° | 1044 W/m² | - |
| 1778009649 | 30° C | 54% | 1005.3 hPa | 0 mm | 3.13 m/s, 231° | 387 W/m² | - |
| 1778009347 | 30° C | 52% | 1005.2 hPa | 0 mm | 3.13 m/s, 244° | 1120 W/m² | - |
| 1778009045 | 30° C | 54% | 1005.3 hPa | 0 mm | 4.47 m/s, 250° | 1007 W/m² | - |
| 1778008742 | 30° C | 60% | 1005.2 hPa | 0 mm | 3.58 m/s, 232° | 852 W/m² | - |
* Rain latest hour (hover to see other rain measurements)
** Current wind speed in m/s (hover to see current wind gust speed)